Regional Weather Roundup
Issued by NWS

Home | Current Version | Previous Version | Text Only | Print | Product List | Glossary Off
Versions: 1 2 3 4 5 6 7 8 9 10 11 12 13 14 15 16 17 18 19 20 21 22 23 24 25 26 27 28 29 30 31 32 33 34 35 36 37 38 39 40 41 42 43 44 45 46 47 48 49 50

000
ASUS43 KBIS 211810
RWRND

NORTH DAKOTA REGIONAL WEATHER ROUNDUP
NATIONAL WEATHER SERVICE BISMARCK ND
100 PM CDT THU AUG 21 2014

NOTE: "FAIR" INDICATES FEW OR NO CLOUDS BELOW 12,000 FEET WITH NO
SIGNIFICANT WEATHER AND/OR OBSTRUCTIONS TO VISIBILITY.


NDZ001>003-009>011-017-211900-
NORTHWEST NORTH DAKOTA

CITY           SKY/WX    TMP DP  RH WIND       PRES   REMARKS
WILLISTON      CLOUDY    66  59  78 N8        29.95R
6HR MIN TEMP:  55; 6HR MAX TEMP:  67;

MINOT          CLOUDY    68  62  81 NW8       29.87R
MINOT AFB      CLOUDY    69  66  88 NW14      29.86S
$$

NDZ018>021-031>035-040>046-211900-
SOUTHWEST NORTH DAKOTA

CITY           SKY/WX    TMP DP  RH WIND       PRES   REMARKS
BISMARCK       MOSUNNY   78  65  63 N13G18    29.86S
6HR MIN TEMP:  65; 6HR MAX TEMP:  78;

DICKINSON      SUNNY     74  60  61 VRB6      29.92S
GARRISON         N/A     76  63  64 NW14      29.87R
6HR MIN TEMP:  64; 6HR MAX TEMP:  76;

HETTINGER ARPT SUNNY     77  59  53 NW7       29.94S
$$

NDZ004>008-012>016-024-026-027-054-211900-
NORTHEAST NORTH DAKOTA

CITY           SKY/WX    TMP DP  RH WIND       PRES   REMARKS
GRAND FORKS    CLOUDY    75  68  78 CALM      29.77S
GRND FRKS AFB  CLOUDY    73  72  96 VRB1      29.79S
DEVILS LAKE    CLOUDY    73  64  73 CALM      29.79R
$$

NDZ022-023-025-028>030-036>039-047>053-211900-
SOUTHEAST NORTH DAKOTA

CITY           SKY/WX    TMP DP  RH WIND       PRES   REMARKS
FARGO          MOSUNNY   78  69  73 E7        29.75F
6HR MIN TEMP:  69; 6HR MAX TEMP:  77; 6HR PCP: TRACE;

JAMESTOWN      PTSUNNY   76  67  73 NW8       29.78F
$$



USA.gov is the U.S. government's official web portal to all federal, state and local government web resources and services.